Weather History for KSET - April, 2014

Change the Weather History Date:

Tuesday, April 15, 2014

  Actual Average (KSTL) Record (KSTL)
Temperature  
Mean Temperature 40 °F 57 °F  
Max Temperature 48 °F 67 °F 89 °F (2002)
Min Temperature 32 °F 47 °F 27 °F (1928)
Degree Days  
Heating Degree Days 25 9  
Month to date heating degree days 169  
Since 1 July heating degree days 4355  
Cooling Degree Days 0 1  
Month to date cooling degree days 15  
Year to date cooling degree days 22  
Moisture  
Dew Point 22 °F    
Average Humidity 52    
Maximum Humidity 76    
Minimum Humidity 32    
Precipitation  
Precipitation 0.00 in 0.12 in 1.83 in (1939)
Month to date precipitation 1.79  
Year to date precipitation 9.75  
Snow  
Snow 0.00 in 0.00 in T in (1993)
Month to date snowfall 0.3  
Since 1 July snowfall 17.6  
Snow Depth -    
Sea Level Pressure  
Sea Level Pressure 30.19 in    
Wind  
Wind Speed 10 mph (NW)    
Max Wind Speed 17 mph    
Max Gust Speed 24 mph    
Visibility 10 miles    
Events      
T = Trace of Precipitation, MM = Missing Value Source: NWS Daily Summary

Daily Weather History Graph

Daily Weather History Graph

Search for Another Location

Airport or City:

Trip Planner

Search our weather history database for the weather conditions in past years. The results will help you decide how hot, cold, wet, or windy it might be!

Date:

Astronomy

Apr. 15, 2014 Rise Set
Actual Time 6:25 AM CDT 7:38 PM CDT
Civil Twilight 5:57 AM CDT 8:06 PM CDT
Nautical Twilight 5:24 AM CDT 8:39 PM CDT
Astronomical Twilight 4:50 AM CDT 9:14 PM CDT
Moon 8:19 PM CDT (4/15) 6:33 AM CDT (4/15)
Length of Visible Light 14h 08m
Length of Day
13h 13m
Full, 100% of the Moon is Illuminated
Apr 15
Full
Apr 22
Last Quarter
Apr 29
New
May 6
First Quarter
May 14
Full

Hourly Weather History & Observations

Time (CDT) Temp. Windchill Dew Point Humidity Pressure Visibility Wind Dir Wind Speed Gust Speed Precip Events Conditions
12:54 AM 34.0 °F 25.5 °F 24.1 °F 67% 30.12 in 10.0 mi NW 11.5 mph - N/A   Clear
1:54 AM 34.0 °F 26.0 °F 23.0 °F 64% 30.11 in 10.0 mi NNW 10.4 mph - N/A   Clear
2:54 AM 34.0 °F 25.5 °F 23.0 °F 64% 30.12 in 10.0 mi NW 11.5 mph - N/A   Clear
3:54 AM 33.1 °F 24.4 °F 21.9 °F 64% 30.13 in 10.0 mi NW 11.5 mph - N/A   Clear
4:54 AM 33.1 °F 23.9 °F 19.9 °F 59% 30.14 in 10.0 mi NW 12.7 mph - N/A   Clear
5:54 AM 32.0 °F 23.0 °F 19.9 °F 61% 30.16 in 10.0 mi NW 11.5 mph - N/A   Clear
6:54 AM 32.0 °F 25.6 °F 21.0 °F 64% 30.19 in 10.0 mi NW 6.9 mph - N/A   Clear
7:54 AM 34.0 °F 25.5 °F 19.9 °F 56% 30.21 in 10.0 mi NW 11.5 mph - N/A   Clear
8:54 AM 36.0 °F 28.5 °F 19.0 °F 50% 30.23 in 10.0 mi NNW 10.4 mph - N/A   Clear
9:54 AM 39.0 °F 31.4 °F 19.0 °F 45% 30.23 in 10.0 mi North 12.7 mph - N/A   Clear
10:54 AM 41.0 °F 33.5 °F 21.0 °F 45% 30.23 in 10.0 mi NW 13.8 mph 20.7 mph N/A   Partly Cloudy
11:54 AM 42.1 °F 33.9 °F 21.0 °F 43% 30.23 in 10.0 mi WNW 17.3 mph 24.2 mph N/A   Mostly Cloudy
12:54 PM 44.1 °F 37.4 °F 21.0 °F 40% 30.23 in 10.0 mi NNW 13.8 mph 24.2 mph N/A   Scattered Clouds
1:54 PM 43.0 °F 36.8 °F 19.0 °F 38% 30.22 in 10.0 mi West 11.5 mph - N/A   Partly Cloudy
2:54 PM 45.0 °F 40.6 °F 18.0 °F 34% 30.21 in 10.0 mi WSW 8.1 mph - N/A   Clear
3:54 PM 46.9 °F - 19.9 °F 34% 30.20 in 10.0 mi North - - N/A   Partly Cloudy
4:54 PM 48.0 °F - 19.0 °F 32% 30.18 in 10.0 mi WSW 8.1 mph - N/A   Clear
5:54 PM 46.9 °F - 18.0 °F 32% 30.18 in 10.0 mi NNW 5.8 mph - N/A   Clear
6:54 PM 46.9 °F - 19.0 °F 33% 30.18 in 10.0 mi WNW 5.8 mph - N/A   Clear
7:54 PM 46.0 °F - 19.0 °F 34% 30.17 in 10.0 mi Calm Calm - N/A   Clear
8:54 PM 41.0 °F 38.0 °F 28.0 °F 60% 30.19 in 10.0 mi SE 4.6 mph - N/A   Clear
9:54 PM 37.9 °F - 30.9 °F 76% 30.20 in 10.0 mi Calm Calm - N/A   Clear
10:54 PM 37.0 °F 33.3 °F 30.0 °F 76% 30.22 in 10.0 mi SE 4.6 mph - N/A   Clear
11:54 PM 37.0 °F 31.0 °F 28.0 °F 70% 30.20 in 10.0 mi SSE 8.1 mph - N/A   Clear